FW5763 Weather Reports


Display with metric or nautical units.
time (UTC)temp
F
wind
direction
speed
MPH
gust
MPH
rain 1hr
in
rain 24hr
in
rain mn
in
humidity
%
barometer
mb
20200408202053 53 162 3.0 7.0 0.00 0.00 0.00 82 1016.4
20200408201629 53 227 3.0 7.0 0.00 0.00 0.00 80 1016.4
20200408201050 54 205 2.0 8.0 0.00 0.00 0.00 80 1016.4
20200408200550 54 191 3.0 8.0 0.00 0.00 0.00 80 1016.3
20200408200151 54 166 1.0 6.0 0.00 0.00 0.00 80 1016.4
20200408195556 54 167 3.0 8.0 0.00 0.00 0.00 79 1016.3
20200408195054 54 161 2.0 8.0 0.00 0.00 0.00 79 1016.4
20200408194659 54 142 4.0 12.0 0.00 0.00 0.00 79 1016.3
20200408194100 54 208 4.0 12.0 0.00 0.00 0.00 79 1016.4
20200408193548 54 207 2.0 6.0 0.00 0.00 0.00 78 1016.3
20200408193106 54 141 1.0 6.0 0.00 0.00 0.00 78 1016.2
20200408192550 54 212 0.0 3.0 0.00 0.00 0.00 79 1016.1
20200408192049 54 119 0.0 5.0 0.00 0.00 0.00 78 1016.2
20200408191702 54 0 1.0 5.0 0.00 0.00 0.00 79 1016.2
20200408191049 54 238 2.0 5.0 0.00 0.00 0.00 79 1016.4
20200408190550 53 220 1.0 5.0 0.00 0.00 0.00 79 1016.6
20200408190115 53 186 1.0 5.0 0.00 0.00 0.00 79 1016.4
20200408185550 53 232 1.0 4.0 0.00 0.00 0.00 79 1016.2
20200408185111 53 263 1.0 8.0 0.00 0.00 0.00 78 1016.2
20200408184701 53 229 3.0 8.0 0.00 0.00 0.00 78 1016.2
20200408184054 53 236 4.0 6.0 0.00 0.00 0.00 77 1016.1
20200408183548 53 224 2.0 6.0 0.00 0.00 0.00 79 1016.1
20200408183113 53 132 2.0 6.0 0.00 0.00 0.00 79 1016.0
20200408182549 53 138 2.0 6.0 0.00 0.00 0.00 79 1016.2
20200408182113 53 205 2.0 9.0 0.00 0.00 0.00 80 1016.2
20200408181638 53 179 4.0 9.0 0.00 0.00 0.00 81 1016.1
20200408181102 53 217 3.0 7.0 0.00 0.00 0.00 81 1016.4
20200408180557 53 185 3.0 7.0 0.00 0.00 0.00 80 1016.5
20200408180313 53 155 1.0 6.0 0.00 0.00 0.00 82 1016.7
20200408175559 53 98 1.0 4.0 0.00 0.00 0.00 83 1016.6
20200408175049 52 0 1.0 4.0 0.00 0.00 0.00 82 1016.4
20200408174632 52 194 2.0 4.0 0.00 0.00 0.00 81 1016.6
20200408174050 52 173 0.0 4.0 0.00 0.00 0.00 81 1016.5
20200408173552 52 96 1.0 4.0 0.00 0.00 0.00 82 1016.6
20200408173155 52 159 0.0 2.0 0.00 0.00 0.00 82 1016.4
20200408172549 52 0 0.0 2.0 0.00 0.00 0.00 82 1016.4
20200408172113 52 0 0.0 2.0 0.00 0.00 0.00 82 1016.4
20200408171557 52 0 0.0 2.0 0.00 0.00 0.00 84 1016.5
20200408171050 52 0 0.0 3.0 0.00 0.00 0.00 85 1016.4
20200408170554 51 229 1.0 3.0 0.00 0.00 0.00 84 1016.0
20200408170209 51 307 1.0 4.0 0.00 0.00 0.00 85 1015.6
20200408165550 51 269 1.0 4.0 0.00 0.00 0.00 85 1015.7
20200408165105 51 241 1.0 3.0 0.00 0.00 0.00 85 1015.6
20200408164638 51 0 0.0 3.0 0.00 0.00 0.00 86 1015.6
20200408164048 51 240 1.0 3.0 0.00 0.00 0.00 86 1015.3
20200408163550 50 281 1.0 2.0 0.00 0.00 0.00 86 1015.4
20200408163116 50 0 0.0 1.0 0.00 0.00 0.00 87 1015.4
20200408162559 50 0 0.0 4.0 0.00 0.00 0.00 87 1015.5
20200408162057 50 281 1.0 4.0 0.00 0.00 0.00 87 1015.6
20200408161732 50 266 2.0 5.0 0.00 0.00 0.00 87 1015.4
20200408161052 50 258 2.0 5.0 0.00 0.00 0.00 87 1015.4
20200408160609 50 273 2.0 4.0 0.00 0.00 0.00 88 1015.4
20200408160221 50 277 0.0 2.0 0.00 0.00 0.00 88 1015.4
20200408155548 49 277 0.0 3.0 0.00 0.00 0.00 88 1015.3
20200408155052 49 0 1.0 3.0 0.00 0.00 0.00 88 1015.3
20200408154633 49 297 1.0 3.0 0.00 0.00 0.00 88 1015.3
20200408154046 49 297 1.0 3.0 0.00 0.00 0.00 89 1015.4
20200408153549 49 297 1.0 3.0 0.00 0.00 0.00 89 1015.3
20200408153146 49 0 0.0 0.0 0.00 0.00 0.00 90 1015.4
20200408152609 49 0 0.0 0.0 0.00 0.00 0.00 90 1015.5
20200408152110 48 0 0.0 0.0 0.00 0.00 0.00 89 1015.6
20200408151554 48 0 0.0 0.0 0.00 0.00 0.00 90 1015.6
20200408151051 48 0 0.0 0.0 0.00 0.00 0.00 90 1015.6
20200408150557 48 0 0.0 0.0 0.00 0.00 0.00 90 1015.8
20200408150154 47 0 0.0 0.0 0.00 0.00 0.00 91 1015.8
20200408145549 47 0 0.0 0.0 0.00 0.00 0.00 91 1015.9
20200408145048 47 0 0.0 0.0 0.00 0.00 0.00 91 1016.0
20200408144706 47 0 0.0 0.0 0.00 0.00 0.00 91 1016.0
20200408144048 46 0 0.0 0.0 0.00 0.00 0.00 91 1016.0
20200408143605 46 0 0.0 0.0 0.00 0.00 0.00 90 1016.1
20200408143257 46 0 0.0 0.0 0.00 0.00 0.00 90 1016.1
20200408142556 46 0 0.0 1.0 0.00 0.00 0.00 90 1016.1
20200408142048 46 0 0.0 2.0 0.00 0.00 0.00 90 1016.1
20200408141641 46 0 0.0 3.0 0.00 0.00 0.00 90 1016.0
20200408141103 46 263 0.0 3.0 0.00 0.00 0.00 90 1015.8
20200408140548 46 263 1.0 3.0 0.00 0.00 0.00 89 1015.5
20200408140149 46 262 0.0 3.0 0.00 0.00 0.00 90 1015.7
20200408135618 46 262 0.0 3.0 0.00 0.00 0.00 89 1015.4
20200408135048 46 262 1.0 3.0 0.00 0.00 0.00 89 1015.5
20200408134709 46 0 0.0 0.0 0.00 0.00 0.00 90 1015.6
20200408134049 46 0 0.0 1.0 0.00 0.00 0.00 89 1015.9
20200408133549 46 0 0.0 1.0 0.00 0.00 0.00 89 1015.7
20200408133237 46 0 0.0 2.0 0.00 0.00 0.00 89 1015.4
20200408132551 46 0 1.0 3.0 0.00 0.00 0.00 89 1015.5
20200408132135 46 0 0.0 3.0 0.00 0.00 0.00 89 1015.7
20200408131606 46 82 1.0 3.0 0.00 0.00 0.00 88 1015.7
20200408131049 46 349 1.0 3.0 0.00 0.00 0.00 88 1015.3
20200408130550 46 0 0.0 1.0 0.00 0.00 0.00 87 1015.1
20200408130244 46 0 0.0 3.0 0.00 0.00 0.00 87 1015.0
20200408125549 46 0 1.0 3.0 0.00 0.00 0.00 87 1014.7
20200408125058 46 198 1.0 3.0 0.00 0.00 0.00 87 1014.7
20200408124615 46 286 0.0 3.0 0.00 0.00 0.00 88 1015.0
20200408124102 46 290 0.0 3.0 0.00 0.00 0.00 87 1014.7
20200408123548 47 290 1.0 3.0 0.00 0.00 0.00 87 1014.9
20200408123117 47 13 0.0 2.0 0.00 0.00 0.00 87 1015.1
20200408122606 47 0 0.0 1.0 0.00 0.00 0.00 87 1015.1
20200408122049 47 0 0.0 2.0 0.00 0.00 0.00 87 1015.0
20200408121558 47 0 0.0 3.0 0.00 0.00 0.00 86 1014.9
20200408121147 47 70 1.0 3.0 0.00 0.00 0.00 86 1015.1
20200408120550 47 0 0.0 4.0 0.00 0.00 0.00 86 1014.7
20200408120135 47 307 1.0 6.0 0.00 0.00 0.00 86 1014.8
20200408115550 47 308 2.0 6.0 0.00 0.00 0.00 87 1014.6
20200408115047 47 319 2.0 6.0 0.00 0.00 0.00 87 1014.4
20200408114659 47 0 0.0 2.0 0.00 0.00 0.00 87 1014.9
20200408114046 47 0 0.0 3.0 0.00 0.00 0.00 87 1015.1
20200408113552 47 0 0.0 5.0 0.00 0.00 0.00 87 1015.3
20200408113130 47 283 2.0 5.0 0.00 0.00 0.00 87 1015.0
20200408112550 47 302 2.0 4.0 0.00 0.00 0.00 87 1015.1
20200408112048 47 297 0.0 2.0 0.00 0.00 0.00 87 1015.3
20200408111709 47 0 0.0 2.0 0.00 0.00 0.00 87 1015.5
20200408111048 47 297 1.0 2.0 0.00 0.00 0.00 87 1015.5
20200408110549 48 298 0.0 2.0 0.00 0.00 0.00 87 1015.2
20200408110059 48 0 0.0 2.0 0.00 0.00 0.00 86 1015.3
20200408105548 48 0 0.0 2.0 0.00 0.00 0.00 86 1015.5
20200408105051 48 298 0.0 3.0 0.00 0.00 0.00 86 1015.6
20200408104712 48 298 1.0 4.0 0.00 0.00 0.00 86 1015.6
20200408104048 48 296 2.0 4.0 0.00 0.00 0.00 86 1015.6
20200408103548 48 290 0.0 2.0 0.00 0.00 0.00 86 1015.7
20200408103139 48 0 0.0 4.0 0.00 0.00 0.00 86 1015.9
20200408102548 48 290 2.0 4.0 0.00 0.00 0.00 86 1015.7
20200408102106 48 289 1.0 3.0 0.00 0.00 0.00 86 1015.9
20200408101711 48 252 0.0 1.0 0.00 0.00 0.00 86 1016.1
20200408101108 48 0 0.0 2.0 0.00 0.00 0.00 86 1016.3
20200408100549 48 252 0.0 3.0 0.00 0.00 0.00 86 1016.1
20200408100134 48 252 1.0 3.0 0.00 0.00 0.00 86 1016.0
20200408095554 48 251 1.0 3.0 0.00 0.00 0.00 86 1016.0
20200408095050 48 0 0.0 2.0 0.00 0.00 0.00 86 1015.8
20200408094653 48 0 0.0 3.0 0.00 0.00 0.00 86 1015.9
20200408094054 48 0 0.0 3.0 0.00 0.00 0.00 86 1015.9
20200408093556 48 31 1.0 3.0 0.00 0.00 0.00 85 1015.9
20200408093137 48 31 0.0 2.0 0.00 0.00 0.00 85 1015.8
20200408092549 48 31 0.0 2.0 0.00 0.00 0.00 85 1015.7
20200408092110 49 0 0.0 2.0 0.00 0.00 0.00 85 1015.6
20200408091049 49 0 0.0 1.0 0.00 0.00 0.00 83 1015.7
20200408090558 49 0 0.0 2.0 0.00 0.00 0.00 83 1015.6
20200408090134 49 295 0.0 2.0 0.00 0.00 0.00 83 1015.6
20200408085557 49 0 0.0 3.0 0.00 0.00 0.00 82 1015.5
20200408085059 49 295 1.0 4.0 0.00 0.00 0.00 82 1015.5
20200408084550 49 281 1.0 4.0 0.00 0.00 0.00 83 1015.4
20200408084049 49 288 1.0 4.0 0.00 0.00 0.00 83 1015.5
20200408083550 49 291 1.0 4.0 0.00 0.00 0.00 83 1015.5
20200408083126 49 261 2.0 4.0 0.00 0.00 0.00 84 1015.7
20200408082549 49 248 2.0 4.0 0.00 0.00 0.00 83 1015.7
20200408082048 50 0 0.0 3.0 0.00 0.00 0.00 83 1015.8
20200408081652 50 17 0.0 3.0 0.00 0.00 0.00 83 1015.8
20200408081049 50 17 1.0 3.0 0.00 0.00 0.00 83 1015.9
20200408080548 49 17 0.0 5.0 0.00 0.00 0.00 83 1015.7
20200408080128 49 11 0.0 5.0 0.00 0.00 0.00 83 1015.9
20200408075549 49 360 1.0 3.0 0.00 0.00 0.00 82 1016.0
20200408075057 49 51 1.0 3.0 0.00 0.00 0.00 82 1016.0
20200408074550 49 68 1.0 3.0 0.00 0.00 0.00 81 1016.2
20200408074054 49 0 0.0 2.0 0.00 0.00 0.00 80 1016.2
20200408073553 49 65 1.0 3.0 0.00 0.00 0.00 80 1016.0
20200408073159 49 65 1.0 4.0 0.00 0.00 0.00 79 1015.9
20200408072559 49 65 2.0 4.0 0.00 0.00 0.00 78 1015.7
20200408072050 49 77 1.0 3.0 0.00 0.00 0.00 77 1015.5
20200408071642 49 61 1.0 3.0 0.00 0.00 0.00 77 1015.5
20200408071049 49 61 1.0 3.0 0.00 0.00 0.00 77 1015.5
20200408070548 49 0 0.0 2.0 0.00 0.00 0.00 77 1015.4
20200408070058 49 0 0.0 3.0 0.00 0.00 0.00 77 1015.1
20200408065601 50 283 1.0 3.0 0.00 0.00 0.00 75 1015.0
20200408065050 50 257 1.0 3.0 0.00 0.00 0.00 75 1015.0
20200408064622 51 0 0.0 2.0 0.00 0.00 0.00 72 1014.9
20200408064047 51 0 0.0 3.0 0.00 0.00 0.00 71 1014.9
20200408063549 51 0 0.0 5.0 0.00 0.00 0.00 71 1014.9
20200408063115 51 0 1.0 7.0 0.00 0.00 0.00 71 1014.9
20200408062601 51 313 2.0 7.0 0.00 0.00 0.00 72 1014.9
20200408062056 51 300 1.0 6.0 0.00 0.00 0.00 72 1014.9
20200408061621 50 309 2.0 6.0 0.00 0.00 0.00 73 1015.0
20200408061050 50 329 2.0 5.0 0.00 0.00 0.00 74 1015.0
20200408060555 50 296 1.0 7.0 0.00 0.00 0.00 75 1014.9
20200408060208 50 311 3.0 7.0 0.00 0.00 0.00 76 1014.9
20200408055549 49 275 2.0 6.0 0.00 0.00 0.00 78 1015.1
20200408055049 49 255 2.0 6.0 0.00 0.00 0.00 78 1015.1
20200408054625 49 287 3.0 6.0 0.00 0.00 0.00 78 1015.3
20200408054048 49 263 1.0 3.0 0.00 0.00 0.00 77 1015.6
20200408053623 49 304 1.0 3.0 0.00 0.00 0.00 77 1015.6
20200408053111 50 290 1.0 4.0 0.00 0.00 0.00 77 1015.9
20200408052548 50 292 1.0 4.0 0.00 0.00 0.00 76 1015.8
20200408052049 50 289 1.0 7.0 0.00 0.00 0.00 76 1015.8
20200408051606 50 289 2.0 8.0 0.00 0.00 0.00 75 1015.9
20200408051046 50 276 2.0 8.0 0.00 0.00 0.00 75 1015.9
20200408050548 50 263 3.0 8.0 0.00 0.00 0.00 75 1016.0
20200408050102 50 317 3.0 8.0 0.00 0.00 0.00 75 1016.0
20200408045603 50 298 2.0 6.0 0.00 0.00 0.00 75 1016.0
20200408045050 50 269 2.0 6.0 0.00 0.00 0.00 75 1016.0
20200408044653 51 268 1.0 4.0 0.00 0.00 0.00 74 1016.1
20200408044051 51 269 1.0 3.0 0.00 0.00 0.00 74 1016.1
20200408043553 51 306 1.0 3.0 0.00 0.00 0.00 73 1016.3
20200408043126 51 306 1.0 6.0 0.00 0.00 0.00 73 1016.3
20200408042552 52 327 1.0 6.0 0.00 0.00 0.00 72 1016.2
20200408042048 52 309 2.0 6.0 0.00 0.00 0.00 72 1016.2
20200408041614 52 265 2.0 8.0 0.00 0.00 0.00 72 1015.9
20200408041054 52 341 2.0 8.0 0.00 0.00 0.00 71 1016.0
20200408040548 52 299 2.0 6.0 0.00 0.00 0.00 71 1016.4
20200408040132 53 296 3.0 6.0 0.00 0.00 0.00 71 1016.3
20200408035606 53 323 1.0 7.0 0.00 0.00 0.00 70 1016.2
20200408035049 53 298 2.0 7.0 0.00 0.00 0.00 70 1015.9
20200408034633 53 304 2.0 8.0 0.00 0.00 0.00 69 1015.8
20200408034047 54 275 3.0 8.0 0.00 0.00 0.00 68 1015.6
20200408033547 54 287 3.0 10.0 0.00 0.00 0.00 68 1015.5
20200408033101 54 294 5.0 12.0 0.00 0.00 0.00 68 1015.4
20200408032549 54 296 6.0 12.0 0.00 0.00 0.00 68 1015.4
20200408032050 54 313 6.0 10.0 0.00 0.00 0.00 69 1015.7
20200408031734 54 319 6.0 10.0 0.00 0.00 0.00 69 1015.9
20200408031049 54 288 4.0 12.0 0.00 0.00 0.00 69 1016.0
20200408030553 55 322 3.0 12.0 0.00 0.00 0.00 68 1016.0
20200408030119 55 313 4.0 12.0 0.00 0.00 0.00 66 1016.1
20200408025600 55 315 5.0 13.0 0.00 0.00 0.00 65 1016.1
20200408025048 56 300 3.0 13.0 0.00 0.00 0.00 65 1016.2
20200408024711 56 321 5.0 10.0 0.00 0.00 0.00 63 1016.1
20200408024052 57 321 3.0 10.0 0.00 0.00 0.00 62 1016.1
20200408023548 57 312 3.0 7.0 0.00 0.00 0.00 60 1016.0
20200408023158 58 279 2.0 7.0 0.00 0.00 0.00 58 1016.1
20200408022602 59 317 2.0 9.0 0.00 0.00 0.00 56 1015.8
20200408022048 59 322 3.0 11.0 0.00 0.00 0.00 55 1015.9
20200408021601 59 343 4.0 11.0 0.00 0.00 0.00 53 1015.7
20200408021054 59 275 2.0 13.0 0.00 0.00 0.00 53 1015.7
20200408020549 59 352 5.0 13.0 0.00 0.00 0.00 52 1015.6
20200408020153 60 352 6.0 13.0 0.00 0.00 0.00 52 1015.6
20200408015553 60 298 4.0 11.0 0.00 0.00 0.00 51 1015.6
20200408015107 60 317 5.0 12.0 0.00 0.00 0.00 50 1015.7
20200408014618 61 340 6.0 13.0 0.00 0.00 0.00 49 1015.7
20200408014054 61 323 5.0 13.0 0.00 0.00 0.00 49 1016.0
20200408013549 62 348 4.0 12.0 0.00 0.00 0.00 48 1016.0
20200408013115 62 317 4.0 12.0 0.00 0.00 0.00 47 1016.1
20200408012552 62 341 5.0 13.0 0.00 0.00 0.00 47 1015.9
20200408012055 62 314 5.0 13.0 0.00 0.00 0.00 47 1016.1
20200408011704 62 335 4.0 10.0 0.00 0.00 0.00 48 1016.1
20200408011048 62 309 5.0 11.0 0.00 0.00 0.00 47 1016.1
20200408010549 62 326 5.0 14.0 0.00 0.00 0.00 47 1016.1
20200408010121 63 295 7.0 14.0 0.00 0.00 0.00 47 1016.3
20200408005548 63 305 3.0 12.0 0.00 0.00 0.00 47 1016.3
20200408005049 63 327 6.0 13.0 0.00 0.00 0.00 47 1016.3
20200408004643 63 352 4.0 13.0 0.00 0.00 0.00 48 1016.4
20200408004047 63 13 5.0 13.0 0.00 0.00 0.00 48 1016.5
20200408003549 63 5 4.0 10.0 0.00 0.00 0.00 47 1016.4
20200408003145 63 22 4.0 10.0 0.00 0.00 0.00 46 1016.6
20200408002547 63 311 3.0 14.0 0.00 0.00 0.00 47 1016.6
20200408002047 63 272 3.0 14.0 0.00 0.00 0.00 48 1016.7
20200408001604 63 265 4.0 9.0 0.00 0.00 0.00 47 1016.9
20200408000553 62 289 2.0 8.0 0.00 0.00 0.00 51 1016.8
20200408000209 61 135 3.0 8.0 0.00 0.00 0.00 52 1017.0
20200407235550 61 257 4.0 7.0 0.00 0.00 0.00 53 1017.0
20200407235052 60 228 3.0 7.0 0.00 0.00 0.00 56 1017.3
20200407234648 60 238 2.0 7.0 0.00 0.00 0.00 56 1017.4
20200407234046 60 217 3.0 10.0 0.00 0.00 0.00 55 1017.4
20200407233549 60 229 5.0 10.0 0.00 0.00 0.00 55 1017.3
20200407233248 61 221 4.0 8.0 0.00 0.00 0.00 53 1017.5
20200407232549 62 202 4.0 9.0 0.00 0.00 0.00 52 1017.4
20200407232101 62 209 4.0 13.0 0.00 0.00 0.00 50 1017.4
20200407231630 62 216 4.0 13.0 0.00 0.00 0.00 50 1017.5
20200407231100 62 212 6.0 10.0 0.00 0.00 0.00 49 1017.5
20200407230549 63 176 4.0 9.0 0.00 0.00 0.00 48 1017.5
20200407230153 62 242 3.0 10.0 0.00 0.00 0.00 46 1017.5
20200407225548 62 219 4.0 11.0 0.00 0.00 0.00 48 1017.6
20200407225106 62 196 5.0 11.0 0.00 0.00 0.00 48 1017.6
20200407224602 62 236 6.0 10.0 0.00 0.00 0.00 49 1017.7
20200407224107 62 224 4.0 9.0 0.00 0.00 0.00 48 1017.8
20200407223555 62 192 5.0 9.0 0.00 0.00 0.00 48 1017.9
20200407223107 62 173 5.0 9.0 0.00 0.00 0.00 47 1017.9
20200407222548 62 227 4.0 9.0 0.00 0.00 0.00 47 1018.1
20200407222055 62 198 3.0 10.0 0.00 0.00 0.00 48 1018.2
20200407221608 61 134 3.0 10.0 0.00 0.00 0.00 48 1018.2
20200407221049 61 212 6.0 10.0 0.00 0.00 0.00 46 1018.3
20200407220548 61 224 4.0 10.0 0.00 0.00 0.00 47 1018.3
20200407220115 62 178 4.0 10.0 0.00 0.00 0.00 46 1018.5
20200407215550 62 175 3.0 11.0 0.00 0.00 0.00 48 1018.6
20200407215056 61 181 5.0 11.0 0.00 0.00 0.00 47 1018.5
20200407214703 61 184 5.0 10.0 0.00 0.00 0.00 47 1018.5
20200407214053 61 159 3.0 10.0 0.00 0.00 0.00 46 1018.6
20200407213548 62 206 3.0 11.0 0.00 0.00 0.00 46 1018.7
20200407213059 61 224 4.0 11.0 0.00 0.00 0.00 45 1018.9
20200407212546 61 196 4.0 10.0 0.00 0.00 0.00 47 1018.7
20200407212054 61 207 4.0 10.0 0.00 0.00 0.00 44 1018.9
20200407211620 62 173 4.0 9.0 0.00 0.00 0.00 43 1018.9
20200407211052 61 142 2.0 6.0 0.00 0.00 0.00 45 1018.9
20200407210606 61 261 4.0 10.0 0.00 0.00 0.00 43 1018.9
20200407210228 61 184 3.0 11.0 0.00 0.00 0.00 43 1019.0
20200407205556 61 251 5.0 11.0 0.00 0.01 0.00 43 1019.2
20200407205054 61 169 3.0 8.0 0.00 0.01 0.00 47 1019.1
20200407204559 61 94 2.0 10.0 0.00 0.01 0.00 47 1019.1
20200407204058 60 219 3.0 10.0 0.00 0.01 0.00 46 1019.3
20200407203553 60 140 3.0 8.0 0.00 0.01 0.00 45 1019.3
20200407203307 60 194 4.0 8.0 0.00 0.01 0.00 43 1019.3
20200407202633 60 154 1.0 6.0 0.00 0.01 0.00 46 1019.3